This is the latest recevied weather packets stored in our database for station/object CE3MXM-12. If no packets are shown the sender has not sent any weather packets the latest 10 day(s).
| Time | Temp. | Humidity | Pressure | Rain* | Wind** | Luminosity | Snow |
|---|---|---|---|---|---|---|---|
| 1777853058 | 14.44° C | 68% | 1017.2 hPa | - | - | - | - |
| 1777852758 | 14.44° C | 67% | 1017.1 hPa | - | - | - | - |
| 1777852458 | 14.44° C | 66% | 1017 hPa | - | - | - | - |
| 1777852158 | 14.44° C | 64% | 1017.1 hPa | - | - | - | - |
| 1777851857 | 14.44° C | 63% | 1017.1 hPa | - | - | - | - |
| 1777851558 | 14.44° C | 64% | 1017.2 hPa | - | - | - | - |
| 1777851257 | 14.44° C | 62% | 1017.2 hPa | - | - | - | - |
| 1777850957 | 15° C | 60% | 1017 hPa | - | - | - | - |
| 1777850658 | 15° C | 58% | 1016.9 hPa | - | - | - | - |
| 1777850357 | 15° C | 57% | 1017 hPa | - | - | - | - |
| 1777850057 | 15° C | 53% | 1016.9 hPa | - | - | - | - |
| 1777849757 | 15° C | 51% | 1017.1 hPa | - | - | - | - |
| 1777849457 | 15.56° C | 52% | 1017.1 hPa | - | - | - | - |
| 1777849157 | 15.56° C | 50% | 1017 hPa | - | - | - | - |
| 1777848857 | 15.56° C | 48% | 1017 hPa | - | - | - | - |
| 1777848557 | 15.56° C | 46% | 1017 hPa | - | - | - | - |
| 1777848257 | 15.56° C | 42% | 1017.2 hPa | - | - | - | - |
| 1777847956 | 15.56° C | 39% | 1016.9 hPa | - | - | - | - |
| 1777847656 | 16.11° C | 39% | 1017 hPa | - | - | - | - |
| 1777847356 | 16.11° C | 43% | 1016.8 hPa | - | - | - | - |
| 1777847056 | 16.11° C | 47% | 1016.9 hPa | - | - | - | - |
| 1777846756 | 16.67° C | 49% | 1017 hPa | - | - | - | - |
| 1777846456 | 16.67° C | 47% | 1016.7 hPa | - | - | - | - |
| 1777846156 | 16.67° C | 43% | 1016.7 hPa | - | - | - | - |
| 1777845856 | 16.67° C | 40% | 1016.6 hPa | - | - | - | - |
* Rain since midnight (hover to see other rain measurements)
** Current wind speed in m/s (hover to see current wind gust speed)